Lincoln, NE

12:47 AM CST on December 12, 2017 (GMT -0600)
Lincoln Municipal

Weather History for KLNK - September, 2012

Change the Weather History Date:

Friday, September 14, 2012

  Actual Average Record
Temperature  
Mean Temperature 63 °F 67 °F  
Max Temperature 81 °F 80 °F 99 °F (1939)
Min Temperature 44 °F 54 °F 34 °F (1890)
Degree Days  
Heating Degree Days 2 2  
Month to date heating degree days 12 19  
Since 1 July heating degree days 19 25  
Cooling Degree Days 0 4  
Month to date cooling degree days 89 81  
Year to date cooling degree days 1481 1116  
Growing Degree Days 13 (Base 50)    
Moisture  
Dew Point 42 °F    
Average Humidity 60    
Maximum Humidity 100    
Minimum Humidity 19    
Precipitation  
Precipitation 0.00 in 0.11 in 2.28 in (1906)
Month to date precipitation 1.71 1.53  
Year to date precipitation 15.55 23.11  
Snow  
Snow 0.00 in 0.00 in - ()
Month to date snowfall 0.0 0.0  
Since 1 July snowfall 0.0 0.0  
Snow Depth 0.00 in    
Sea Level Pressure  
Sea Level Pressure 30.34 in    
Wind  
Wind Speed 7 mph (SSW)    
Max Wind Speed 16 mph    
Max Gust Speed 22 mph    
Visibility 10 miles    
Events      
T = Trace of Precipitation, MM = Missing Value Source: NWS Daily Summary

Daily Weather History Graph

Daily Weather History Graph

Search for Another Location

Airport or City:

Trip Planner

Search our weather history database for the weather conditions in past years. The results will help you decide how hot, cold, wet, or windy it might be!

Date:

Astronomy

Sep. 14, 2012 Rise Set
Actual Time 7:07 AM CDT 7:36 PM CDT
Civil Twilight 6:39 AM CDT 8:04 PM CDT
Nautical Twilight 6:07 AM CDT 8:36 PM CDT
Astronomical Twilight 5:33 AM CDT 9:10 PM CDT
Moon 5:32 AM CDT (9/14) 6:34 PM CDT (9/14)
Length of Visible Light 13h 24m
Length of Day
12h 29m
Waning Crescent, 2% of the Moon is Illuminated
Sep 14
Waning Crescent
Sep 15
New
Sep 22
First Quarter
Sep 29
Full
Oct 8
Last Quarter

Hourly Weather History & Observations

Time (CDT) Temp. Windchill Dew Point Humidity Pressure Visibility Wind Dir Wind Speed Gust Speed Precip Events Conditions
12:54 AM 52.0 °F - 48.0 °F 86% 30.40 in 10.0 mi Calm Calm - N/A   Clear
1:54 AM 51.1 °F - 48.0 °F 89% 30.40 in 10.0 mi South 3.5 mph - N/A   Clear
2:54 AM 50.0 °F - 46.9 °F 89% 30.39 in 10.0 mi Calm Calm - N/A   Clear
3:54 AM 51.1 °F - 46.9 °F 86% 30.38 in 10.0 mi SW 3.5 mph - N/A   Clear
4:54 AM 50.0 °F - 46.0 °F 86% 30.38 in 9.0 mi SW 4.6 mph - N/A   Clear
5:54 AM 46.0 °F 44.8 °F 44.1 °F 93% 30.38 in 8.0 mi SSE 3.5 mph - N/A   Partly Cloudy
6:54 AM 46.0 °F - 45.0 °F 96% 30.38 in 8.0 mi Calm Calm - N/A   Clear
7:54 AM 45.0 °F 41.8 °F 44.1 °F 97% 30.40 in 6.0 mi South 5.8 mph - N/A   Clear
8:54 AM 52.0 °F - 46.9 °F 83% 30.40 in 9.0 mi South 5.8 mph - N/A   Clear
9:54 AM 60.1 °F - 44.1 °F 55% 30.39 in 10.0 mi WSW 8.1 mph - N/A   Clear
10:54 AM 66.9 °F - 43.0 °F 42% 30.39 in 10.0 mi SW 6.9 mph - N/A   Clear
11:54 AM 72.0 °F - 34.0 °F 25% 30.37 in 10.0 mi SW 10.4 mph - N/A   Clear
12:54 PM 75.0 °F - 35.1 °F 23% 30.35 in 10.0 mi SSW 8.1 mph 16.1 mph N/A   Clear
1:54 PM 78.1 °F - 35.1 °F 21% 30.33 in 10.0 mi South 12.7 mph - N/A   Clear
2:54 PM 79.0 °F - 34.0 °F 20% 30.30 in 10.0 mi South 11.5 mph 18.4 mph N/A   Clear
3:54 PM 80.1 °F - 36.0 °F 20% 30.29 in 10.0 mi SSW 10.4 mph - N/A   Clear
4:54 PM 80.1 °F - 37.9 °F 22% 30.27 in 10.0 mi South 11.5 mph - N/A   Clear
5:54 PM 78.1 °F - 39.0 °F 25% 30.27 in 10.0 mi South 10.4 mph - N/A   Clear
6:54 PM 73.9 °F - 41.0 °F 30% 30.27 in 10.0 mi South 10.4 mph - N/A   Clear
7:54 PM 66.0 °F - 43.0 °F 43% 30.28 in 10.0 mi South 11.5 mph - N/A   Clear
8:54 PM 63.0 °F - 43.0 °F 48% 30.29 in 10.0 mi South 10.4 mph - N/A   Clear
9:54 PM 57.0 °F - 43.0 °F 59% 30.29 in 10.0 mi South 8.1 mph - N/A   Clear
10:54 PM 55.9 °F - 45.0 °F 67% 30.29 in 10.0 mi South 5.8 mph - N/A   Clear
11:54 PM 57.0 °F - 44.1 °F 62% 30.29 in 10.0 mi South 3.5 mph - N/A   Clear